[[{"header":{"parameterUnit":"m.s-1","parameterCategory":1,"la1":30.2991,"la2":30.254,"lo1":-89.0895,"lo2":-89.0444,"dy":0.0017,"dx":0.0017,"nx":28,"ny":28,"refTime":"2023-09-12T21:00:00:Z","depth":0,"parameterNumber":2,"parameterNumberName":"U-component_of_WINDS"},"data":[0,0,0,0,0,0,0,0,0,0,0,0,0,0,0,0,0,0,0,0,0,0,0,0,0,0,0,0,0,0,0,0,0,0,0,0,0,0,0,0,0,0,0,0,0,0,0,0,0,0,0,0,0,0,0,0,0,0,3.1281,3.1281,0,3.1302,3.1302,3.1302,3.1246,3.1244,3.1243,3.1241,3.1264,3.1266,3.1268,0,0,0,0,0,0,0,0,0,0,0,0,0,3.1193,3.1195,3.1281,3.1281,3.1281,3.1302,3.1302,3.1303,3.1247,3.1244,3.1242,3.124,3.1263,3.1266,3.1268,0,0,0,0,0,0,0,0,0,0,0,0,0,3.1225,3.1196,3.1281,3.1256,3.1254,3.1302,3.1302,3.1303,3.1247,3.1244,3.1242,3.1239,3.1262,3.1266,3.1269,3.1342,0,0,3.1279,3.1281,0,0,0,0,0,0,0,0,3.1223,3.1228,3.1259,3.1258,3.1255,3.1269,3.128,3.1316,3.1248,3.125,3.1241,3.1238,3.1268,3.127,3.128,3.1344,3.1345,3.1279,3.1282,3.1283,3.1284,0,0,0,0,0,0,0,3.1221,3.1227,3.1289,3.126,3.1257,3.1244,3.1246,3.1286,3.1273,3.1249,3.1245,3.1248,3.1266,3.1277,3.128,3.1345,3.1279,3.1282,3.1284,3.1286,3.1471,3.1474,0,0,0,0,0,0,3.1222,3.1225,3.1288,3.129,3.1232,3.1248,3.1249,3.1267,3.1273,3.1271,3.1251,3.1246,3.1273,3.1277,3.1281,3.1368,3.1283,3.1286,3.1288,3.1468,3.1471,3.1475,0,0,0,0,0,0,3.122,3.1228,3.1288,3.1256,3.1263,3.1252,3.1272,3.1269,3.128,3.1274,3.1271,3.1264,3.1271,3.1276,3.1328,3.1368,3.1288,3.1291,3.1465,3.1469,3.1473,3.1543,0,0,0,0,0,0,3.1218,3.1227,3.1255,3.1257,3.1265,3.1334,3.1275,3.1271,3.1286,3.1279,3.1286,3.1284,3.1269,3.1323,3.1331,3.1371,3.1293,3.1461,3.1467,3.1472,3.1537,3.1549,3.1559,0,0,0,0,0,3.1215,3.1274,3.1256,3.1264,3.1299,3.1336,3.134,3.1321,3.1289,3.1317,3.1313,3.1284,3.1363,3.1329,3.1337,3.1379,3.1458,3.1465,3.1471,3.1532,3.1547,3.1559,0,0,0,0,0,0,3.1276,3.1273,3.1254,3.1316,3.1327,3.1326,3.1361,3.1338,3.1358,3.1351,3.1327,3.1329,3.1386,3.1388,3.135,3.1451,3.1405,3.1413,3.1448,3.1462,3.1473,3.1471,3.1296,0,0,0,0,0,3.1297,3.1327,3.1323,3.1378,3.1384,3.1372,3.1387,3.1372,3.1382,3.1387,3.1386,3.1398,3.1425,3.1444,3.1468,3.1537,3.1538,3.157,3.1581,3.1591,3.1598,3.1636,3.165,3.1496,3.1496,3.1496,0,0,3.134,3.1342,3.1362,3.139,3.1396,3.1429,3.1376,3.1412,3.1436,3.1392,3.1441,3.1442,3.1453,3.1514,3.154,3.1517,3.1641,3.1599,3.1606,3.1609,3.1644,3.1659,3.1672,3.15,3.15,3.1499,0,0,3.1434,3.1439,3.1485,3.1493,3.1504,3.1496,3.1507,3.1511,3.1509,3.1558,3.1526,3.1555,3.1602,3.1611,3.1623,3.1723,3.1697,3.1732,3.179,3.1827,3.1839,3.185,3.1886,3.19,3.1739,3.1739,3.174,0,3.1486,3.1533,3.1512,3.1551,3.1564,3.1526,3.1574,3.1582,3.1601,3.1612,3.1585,3.1644,3.1649,3.1712,3.1737,3.1747,3.1759,3.1731,3.1839,3.185,3.1859,3.1894,3.1907,3.1744,3.1743,3.1743,3.1742,0,3.1597,3.1631,3.1667,3.1686,3.1703,3.1746,3.1732,3.1753,3.1736,3.1731,3.1782,3.1787,3.1812,3.1826,3.181,3.1887,3.1872,3.1843,3.1796,3.1879,3.191,3.1923,3.175,3.1748,3.1747,3.1746,0,0,3.173,3.1738,3.1752,3.176,3.177,3.1795,3.1837,3.1862,3.1881,3.1895,3.193,3.1971,3.1945,3.1957,3.1942,3.1975,3.2055,3.1941,3.1941,3.1963,3.2141,3.2163,3.2178,3.2038,3.204,3.2042,3.214,0,3.1824,3.1895,3.1878,3.1949,3.198,3.1945,3.1981,3.1992,3.1989,3.2015,3.2011,3.2041,3.2003,3.2011,3.2041,3.2039,3.209,3.2031,3.2071,3.2072,3.2069,3.2195,3.2218,3.231,3.2152,3.2154,3.2156,0,3.1943,3.1962,3.2036,3.2042,3.2054,3.2087,3.2109,3.2135,3.2146,3.2142,3.2157,3.2136,3.2178,3.2131,3.2189,3.2149,3.2164,3.2166,3.2169,3.2172,3.2119,3.2202,3.2339,3.2353,3.2175,3.2174,3.2172,0,3.2033,3.2078,3.2128,3.2137,3.2144,3.2169,3.2173,3.2182,3.2198,3.2218,3.2228,3.2253,3.2266,3.2286,3.2272,3.2239,3.2333,3.2284,3.2331,3.2331,3.2352,3.2351,3.2494,3.2362,3.2362,3.2361,3.2361,0,3.214,3.2187,3.2169,3.22,3.2252,3.2232,3.2284,3.2284,3.2293,3.2324,3.2295,3.2325,3.2305,3.2334,3.2323,3.2374,3.238,3.2378,3.2374,3.238,3.2381,3.239,3.2383,3.2365,3.2364,3.2363,3.2363,0,3.225,3.2239,3.2292,3.2295,3.2297,3.2335,3.2339,3.2368,3.2363,3.2402,3.241,3.2403,3.2435,3.2423,3.2457,3.2451,3.2515,3.2503,3.2511,3.2508,3.2555,3.2551,3.2709,3.2729,3.2584,3.2586,3.2587,0,3.2318,3.2354,3.2361,3.238,3.2386,3.2417,3.2433,3.2416,3.2435,3.2451,3.2479,3.2508,3.2531,3.2584,3.2582,3.2608,3.2597,3.265,3.2601,3.2606,3.2598,3.2596,3.26,3.266,3.2662,3.2663,3.2665,0,3.2442,3.2435,3.2461,3.2485,3.2506,3.2524,3.2539,3.2556,3.254,3.2562,3.2595,3.2612,3.2648,3.2678,3.2702,3.2707,3.2684,3.268,3.2693,3.2699,3.2702,3.2702,3.2538,3.2677,3.2676,3.2675,3.2674,3.2674,3.2533,3.2563,3.2574,3.2603,3.2613,3.2629,3.2656,3.2655,3.2682,3.2709,3.2697,3.2735,3.2747,3.2776,3.2785,3.2814,3.2794,3.2811,3.2816,3.282,3.2827,3.2698,3.2819,3.2818,3.2818,3.2818,3.2817,0,3.2656,3.2661,3.2688,3.2711,3.2735,3.271,3.2727,3.2748,3.2782,3.2794,3.2818,3.2855,3.2885,3.2885,3.2913,3.2936,3.2926,3.2944,3.2942,3.2944,3.2843,3.283,3.2952,3.2952,3.2952,3.2952,3.2952,3.2952,3.2722,3.2772,3.2767,3.2822,3.2827,3.2863,3.2875,3.2889,3.29,3.2943,3.2967,3.2967,3.2976,3.3004,3.303,3.3029,3.3041,3.3063,3.3058,3.2964,3.2951,3.2938,3.2926,3.3065,3.3065,3.3156,3.3157,3.3158]},{"header":{"parameterUnit":"m.s-1","parameterCategory":1,"la1":30.2991,"la2":30.254,"lo1":-89.0895,"lo2":-89.0444,"dy":0.0017,"dx":0.0017,"nx":28,"ny":28,"refTime":"2023-09-12T21:00:00:Z","depth":0,"parameterNumber":3,"parameterNumberName":"V-component_of_WINDS"},"data":[0,0,0,0,0,0,0,0,0,0,0,0,0,0,0,0,0,0,0,0,0,0,0,0,0,0,0,0,0,0,0,0,0,0,0,0,0,0,0,0,0,0,0,0,0,0,0,0,0,0,0,0,0,0,0,0,0,0,0.2373,0.2373,0,0.2357,0.2356,0.2356,0.2351,0.2351,0.2352,0.2352,0.2335,0.2334,0.2334,0,0,0,0,0,0,0,0,0,0,0,0,0,0.2398,0.2398,0.2373,0.2373,0.2373,0.2357,0.2356,0.2356,0.2351,0.2351,0.2352,0.2352,0.2335,0.2334,0.2334,0,0,0,0,0,0,0,0,0,0,0,0,0,0.2385,0.2398,0.2373,0.2368,0.2368,0.2357,0.2356,0.2356,0.2351,0.2351,0.2352,0.2352,0.2335,0.2334,0.2334,0.2326,0,0,0.2331,0.2331,0,0,0,0,0,0,0,0,0.2386,0.2384,0.2369,0.2369,0.2368,0.2356,0.2359,0.2346,0.2351,0.2358,0.2352,0.2352,0.2342,0.234,0.2337,0.2325,0.2325,0.2331,0.2331,0.233,0.233,0,0,0,0,0,0,0,0.2387,0.2385,0.2366,0.2369,0.2368,0.2366,0.2365,0.2357,0.2349,0.2357,0.2357,0.2355,0.2341,0.2338,0.2337,0.2324,0.2331,0.233,0.233,0.233,0.2304,0.2303,0,0,0,0,0,0,0.2389,0.2386,0.2367,0.2366,0.2377,0.2366,0.2364,0.236,0.2349,0.2348,0.2355,0.2355,0.2339,0.2338,0.2336,0.2325,0.233,0.233,0.2329,0.2304,0.2304,0.2303,0,0,0,0,0,0,0.2389,0.2387,0.2368,0.2376,0.2373,0.2365,0.2361,0.2359,0.2356,0.2347,0.2346,0.2352,0.2339,0.2337,0.2328,0.2325,0.2329,0.2328,0.2304,0.2304,0.2303,0.2305,0,0,0,0,0,0,0.239,0.2387,0.2385,0.2376,0.2373,0.2361,0.236,0.2359,0.2354,0.2354,0.2345,0.2344,0.2339,0.2329,0.2327,0.2324,0.2328,0.2304,0.2304,0.2304,0.2305,0.2305,0.2304,0,0,0,0,0,0.2391,0.2386,0.2385,0.2383,0.237,0.236,0.2359,0.2354,0.2354,0.2351,0.2346,0.2344,0.2325,0.2329,0.2326,0.2322,0.2305,0.2304,0.2304,0.2305,0.2305,0.2304,0,0,0,0,0,0,0.2396,0.2385,0.2383,0.2376,0.2369,0.236,0.2356,0.2354,0.2347,0.2347,0.2341,0.2338,0.233,0.2325,0.2329,0.2313,0.2315,0.2314,0.2317,0.2316,0.2316,0.2317,0.2327,0,0,0,0,0,0.2396,0.239,0.2381,0.2375,0.2371,0.2364,0.236,0.2357,0.2349,0.2346,0.234,0.2333,0.2325,0.2321,0.2313,0.2304,0.2301,0.23,0.23,0.2299,0.2299,0.2292,0.2291,0.2302,0.2302,0.2302,0,0,0.2396,0.239,0.2386,0.2375,0.237,0.2363,0.2362,0.2355,0.2349,0.2345,0.2336,0.2331,0.2323,0.2313,0.2309,0.2309,0.2295,0.2299,0.2299,0.2298,0.2291,0.229,0.2289,0.2301,0.2301,0.2302,0,0,0.2393,0.2388,0.2382,0.2376,0.2367,0.2362,0.236,0.2351,0.2347,0.2338,0.2334,0.2327,0.2315,0.2308,0.2303,0.2296,0.2293,0.2293,0.2291,0.2284,0.2283,0.2283,0.2279,0.2277,0.2293,0.2293,0.2293,0,0.2395,0.2384,0.2379,0.2372,0.2366,0.2362,0.2355,0.2349,0.2338,0.2335,0.2335,0.2318,0.2312,0.23,0.2298,0.2295,0.2292,0.2294,0.2284,0.2283,0.2282,0.2278,0.2277,0.2293,0.2293,0.2293,0.2293,0,0.2386,0.2379,0.2375,0.2364,0.2358,0.2351,0.2344,0.2338,0.2335,0.2329,0.2319,0.2311,0.2302,0.2298,0.2296,0.2285,0.2286,0.2285,0.2287,0.2281,0.2277,0.2276,0.2293,0.2293,0.2293,0.2293,0,0,0.2387,0.2372,0.237,0.2364,0.2353,0.2347,0.2339,0.2329,0.2324,0.2317,0.2309,0.2298,0.2296,0.2291,0.2287,0.2281,0.2273,0.2281,0.2281,0.2279,0.226,0.226,0.2259,0.2272,0.2271,0.2271,0.2261,0,0.2382,0.2367,0.2361,0.235,0.2342,0.2337,0.2329,0.2321,0.2316,0.2308,0.2301,0.2293,0.2292,0.2289,0.2283,0.2276,0.2269,0.2276,0.2264,0.2263,0.2266,0.2257,0.2258,0.2248,0.2259,0.2259,0.2259,0,0.2374,0.2366,0.2353,0.2341,0.2338,0.2332,0.2321,0.2314,0.2304,0.23,0.2293,0.2289,0.2279,0.228,0.2266,0.2271,0.2265,0.2261,0.226,0.2258,0.2261,0.2254,0.2245,0.2243,0.2257,0.2257,0.2257,0,0.2375,0.236,0.235,0.2346,0.2332,0.2327,0.2321,0.2312,0.2305,0.2296,0.2292,0.2281,0.2276,0.2267,0.226,0.2262,0.2246,0.2247,0.2241,0.2241,0.2238,0.2238,0.2227,0.2235,0.2235,0.2235,0.2235,0,0.2369,0.2362,0.235,0.2344,0.2334,0.2327,0.2318,0.2311,0.2302,0.2294,0.2289,0.2281,0.2272,0.2263,0.2257,0.2245,0.2243,0.2238,0.2237,0.2239,0.2239,0.2235,0.2235,0.2235,0.2235,0.2235,0.2235,0,0.2369,0.2361,0.2349,0.2337,0.2333,0.2327,0.2316,0.2309,0.2302,0.2292,0.2289,0.2278,0.2267,0.2259,0.2244,0.224,0.2227,0.2226,0.2231,0.223,0.2224,0.2224,0.2209,0.2206,0.2217,0.2217,0.2217,0,0.2366,0.236,0.2346,0.234,0.2334,0.2324,0.2318,0.2309,0.2302,0.229,0.2284,0.2272,0.2262,0.2244,0.2235,0.2223,0.2221,0.2217,0.222,0.2221,0.222,0.222,0.2219,0.2216,0.2216,0.2216,0.2216,0,0.2361,0.2357,0.2348,0.2336,0.2328,0.2319,0.231,0.2305,0.2295,0.2287,0.2275,0.2267,0.2252,0.224,0.2227,0.222,0.2216,0.2215,0.2213,0.2215,0.2217,0.2215,0.2229,0.2216,0.2216,0.2216,0.2216,0.2216,0.2359,0.2352,0.2341,0.233,0.2322,0.2313,0.2305,0.2297,0.2287,0.2274,0.2269,0.2257,0.2245,0.2227,0.222,0.2209,0.2209,0.2206,0.2206,0.2205,0.2204,0.2219,0.2207,0.2207,0.2207,0.2207,0.2207,0,0.2353,0.2345,0.2335,0.2322,0.2313,0.2309,0.2298,0.2291,0.228,0.2269,0.2259,0.2244,0.2232,0.2221,0.2208,0.2201,0.2199,0.2198,0.2198,0.2197,0.2206,0.2208,0.22,0.22,0.22,0.22,0.22,0.22,0.2349,0.2337,0.2331,0.2315,0.2307,0.2294,0.2288,0.2279,0.227,0.2254,0.2244,0.2237,0.2225,0.2211,0.2199,0.2196,0.2191,0.219,0.2187,0.2195,0.2196,0.2197,0.2199,0.2189,0.2189,0.2178,0.2178,0.2178]}]]